Preview of NWS' New Version of Forecast
This preview is not operational and should not be used for support decisions.
Latest weather observations around

Caribou, Caribou Municipal Airport (KCAR)

Using English Units (Switch to International System of Units)
Date/ Time (EST) Wind (mph) Vis. (mi) Weather Sky Cond. Temp (°F) Rel. Humidity Wind Chill (°F) Heat Index (°F) Pressure Precip. (in)
Air Dwpt 6 hour Altimeter (inHg) Sea level (inHg) 1 hr 3 hr 6 hr
Max Min
Feb 22 08:54 NNW 6 10 Clear CLR 15 1     53% 6   30.63 30.68      
Feb 22 07:54 NNW 10 10 Clear CLR 12 0     58% -1   30.63 30.67      
Feb 22 06:54 N 6 10 Clear CLR 11 0     61% 1   30.62 30.66      
Feb 22 05:54 NNW 10 10 Clear CLR 11 0     61% -3   30.58 30.62      
Feb 22 04:54 NNW 10 10 Clear CLR 13 1     58% 0   30.55 30.59      
Feb 22 03:54 NW 8 10 Clear CLR 13 2     61% 2   30.53 30.57      
Feb 22 02:54 NW 13 10 Clear CLR 16 2     53% 2   30.49 30.53      
Feb 22 01:54 NW 13 10 Clear CLR 18 4     54% 5   30.47 30.5      
Feb 22 00:54 NW 16 10 Clear CLR 20 5     52% 6   30.44 30.47      
Feb 21 23:54 NW 10 10 Clear CLR 22 7     52% 11   30.37 30.4      
Feb 21 22:54 NW 17 10 Clear CLR 26 9     48% 13   30.32 30.35      
Feb 21 21:54 WNW 20 10 Clear and Windy CLR 29 9     42% 16   30.26 30.29      
Feb 21 20:54 NNW 24 10 Mostly Clear and Windy FEW040 34 20     56% 22   30.21 30.25      
Feb 21 19:54 NNW 18 10 Mostly Clear FEW045 38 26     62% 28   30.13 30.16      
Feb 21 18:54 NNW 15 10 Partly Cloudy SCT110 41 34     76% 33   30.06 30.09      
Feb 21 18:40 N 14 10 Cloudy SCT090 OVC110 42 35     76% 35   30.04        
Feb 21 17:54 WNW 11 10 Cloudy FEW029 BKN040 OVC049 49 40     71% 44   29.99 30.01      
Feb 21 16:54 W 9 10 Cloudy OVC060 50 43     77% 46   29.92 29.95      
Feb 21 16:22 W 9 10 Cloudy FEW019 SCT026 OVC046 46 43     89% 41   29.89        
Feb 21 15:54 SW 5 10 Cloudy BKN022 OVC027 43 41     93% 40   29.87 29.9      
Feb 21 15:18 S 5 10 Cloudy BKN029 OVC060 43 41     93% 40   29.85        
Feb 21 14:54 S 6 10 Cloudy OVC055 44 41     89% 41   29.84 29.87      
Feb 21 14:01 S 9 10 Cloudy SCT023 OVC047 43 39     86% 38   29.83        
Feb 21 13:54 S 7 10 Cloudy BKN023 OVC045 43 39     86% 39   29.84 29.86      
Feb 21 12:54 S 7 10 Cloudy OVC022 41 38     89% 36   29.86 29.88      
Feb 21 12:35 S 7 10 Cloudy BKN023 BKN048 OVC060 41 38     89% 36   29.87        
Feb 21 12:17 S 8 10 Cloudy SCT023 BKN046 OVC060 40 38     93% 34   29.87        
Feb 21 11:54 S 10 10 Cloudy FEW003 BKN026 OVC041 39 37     93% 32   29.89 29.92      
Feb 21 11:45 S 9 10 Cloudy FEW003 BKN026 OVC041 39 37     93% 33   29.9        
Feb 21 10:54 SSW 7 10 Cloudy BKN003 BKN025 OVC046 36 34     92% 30   29.93 29.96      
Feb 21 10:02 S 6 3 Fog/Mist OVC002 34 33     96% 29   29.95        
Feb 21 09:54 S 7 1.75 Fog/Mist OVC002 34 33     96% 28   29.95 29.98      
Feb 21 09:52 S 8 1.25 Fog/Mist OVC002 34 32     93% 27   29.95        
Feb 21 08:54 S 7 0.5 Fog VV002 33 32     96% 27   29.97 30      
Feb 21 07:54 S 11 0.25 Fog VV002 33 31     92% 24   29.99 30.02      
Feb 21 06:54 S 14 0.5 Fog VV002 32 30     92% 22   30 30.03 0   0
Feb 21 06:50 S 16 0.75 Fog/Mist OVC003 32 30     93% 21   30   0    
Feb 21 06:45 SSE 13 1.75 Fog/Mist OVC003 32 30     92% 22   30.01   0    
Feb 21 06:36 S 16 8 Cloudy OVC004 32 30     92% 21   30.01   0    
Feb 21 06:17 S 11 10 Cloudy OVC005 32 30     92% 23   30.02   0    
Feb 21 06:09 S 16 8 Light Freezing Rain OVC005 32 30     92% 21   30.04   0    
Feb 21 05:58 S 13 4 Freezing Rain and Fog/Mist OVC005 32 29     88% 22   30.04   0    
Feb 21 05:54 S 13 4 Light Freezing Rain and Fog/Mist OVC004 32 29     88% 22   30.04 30.07 0    
Feb 21 04:54 S 15 5 Light Freezing Rain and Fog/Mist OVC003 31 29     92% 20   30.07 30.1 0    
Feb 21 04:11 S 11 6 Fog/Mist OVC004 31 28     89% 22   30.1        
Feb 21 03:54 SSE 15 5 Fog/Mist OVC005 31 28     89% 20   30.11 30.15   0  
Feb 21 02:54 SSE 11 4 Fog/Mist OVC005 30 28     92% 21   30.14 30.17 0    
Feb 21 02:48 SSE 13 4 Light Freezing Rain and Fog/Mist OVC005 30 28     93% 20   30.14   0    
Feb 21 01:54 SSE 11 4 Fog/Mist OVC007 31 28     89% 22   30.18 30.21 0    
Feb 21 01:06 SSE 13 5 Fog/Mist OVC007 31 28     89% 21   30.2   0    
Feb 21 00:54 SSE 15 4 Light Freezing Rain and Fog/Mist BKN005 OVC009 31 28     89% 20   30.2 30.23 0   0
Feb 21 00:15 SSE 9 3 Light Freezing Rain and Fog/Mist OVC005 31 28     89% 23   30.23   0    
Feb 21 00:06 SSE 7 2.5 Light Freezing Rain and Fog/Mist OVC006 31 28     89% 24   30.23   0    
Feb 20 23:54 SSE 7 4 Fog/Mist OVC007 31 28     89% 24   30.23 30.27      
Feb 20 23:26 SE 10 10 Cloudy OVC008 31 27     85% 22   30.24        
Feb 20 22:54 SSE 13 9 Cloudy OVC011 31 27     85% 21   30.24 30.27      
Feb 20 22:18 SE 10 10 Cloudy OVC014 32 27     81% 24   30.25        
Feb 20 22:07 SE 11 10 Cloudy OVC015 32 27     81% 23   30.26        
Feb 20 21:58 SSE 13 10 Cloudy OVC013 32 28     85% 22   30.26        
Feb 20 21:54 SE 13 10 Cloudy SCT010 OVC015 32 28     85% 22   30.26 30.29   0  
Feb 20 21:48 SE 13 10 Cloudy SCT010 OVC015 32 28     86% 22   30.26        
Feb 20 21:40 SSE 15 10 Cloudy BKN009 OVC015 32 28     85% 22   30.26        
Feb 20 20:54 SE 9 10 Cloudy OVC010 32 28     85% 24   30.26 30.29      
Feb 20 19:54 ESE 10 10 Cloudy OVC012 33 29     85% 25   30.29 30.32 0    
Feb 20 19:33 ESE 10 10 Cloudy BKN014 OVC020 33 29     85% 25   30.29   0    
Feb 20 19:11 ESE 10 10 Light Rain SCT008 OVC016 33 30     88% 25   30.29   0    
Feb 20 18:54 E 13 5 Light Rain and Fog/Mist BKN006 OVC011 34 31     88% 25   30.29 30.32 0   0
Feb 20 18:35 ESE 13 4 Light Rain and Fog/Mist BKN006 OVC016 35 32     88% 26   30.3   0    
Feb 20 18:25 E 10 4 Unknown Precipitation and Fog/Mist SCT006 BKN016 OVC024 35 32     88% 27   30.29   0    
Feb 20 17:54 ESE 8 4 Light Rain and Fog/Mist OVC024 36 33     89% 30   30.3 30.34 0    
Feb 20 16:54 ENE 3 10 Light Rain OVC026 36 32     85% 33   30.28 30.31 0    
Feb 20 15:54 NE 5 8 Light Rain OVC024 37 32     82% 33   30.27 30.3 0 0  
Feb 20 15:36 Calm 8 Light Rain OVC028 37 32     82%     30.27   0    
Feb 20 14:54 NE 3 10 Light Rain OVC035 38 31     76% 36   30.25 30.28 0    
Feb 20 13:54 ENE 5 10 Cloudy OVC034 38 30     73% 34   30.25 30.28      
Feb 20 12:54 E 5 10 Cloudy OVC037 38 30     73% 34   30.26 30.29      
Feb 20 11:54 ENE 6 10 Cloudy OVC040 37 30     76% 32   30.28 30.31      
Feb 20 10:54 NE 7 10 Cloudy OVC042 37 29     72% 32   30.3 30.32      
Feb 20 09:54 NE 5 10 Cloudy OVC043 36 31     82% 32   30.29 30.32      
Feb 20 09:17 NNE 5 10 Cloudy SCT006 OVC043 35 31     85% 31   30.3        
Feb 20 08:54 Calm 7 Cloudy OVC043 34 31     88%     30.3 30.32      
Feb 20 07:54 N 3 5 Fog/Mist OVC044 33 30     88% 30   30.28 30.31      
Feb 20 06:54 Calm 5 Fog/Mist BKN042 OVC050 33 30     88%     30.27 30.3     0
Feb 20 05:54 Calm 5 Fog/Mist BKN041 OVC070 32 30     92%     30.25 30.28 0    
Feb 20 05:01 Calm 7 Cloudy SCT027 OVC040 33 30     88%     30.23        
Feb 20 04:54 Calm 7 Cloudy BKN027 OVC040 33 30     88%     30.23 30.26 0    
Feb 20 04:27 Calm   Cloudy BKN028 OVC040 33 30     88%     30.23   0    
Feb 20 03:54 Calm 6 Fog/Mist SCT028 BKN034 OVC041 34 30     85%     30.22 30.25 0 0  
Feb 20 03:41 Calm 6 Unknown Precipitation and Fog/Mist OVC031 34 30     85%     30.22   0    
Feb 20 03:20 Calm 3 Light Snow and Fog/Mist OVC026 34 30     85%     30.22   0    
Feb 20 03:15 Calm 1.75 Light Snow and Fog/Mist OVC026 34 30     85%     30.22   0    
Feb 20 03:05 W 3 2.5 Light Snow BKN026 OVC047 34 29     82% 31   30.22   0    
Feb 20 02:54 WSW 5 9 Cloudy BKN034 OVC047 34 29     82% 30   30.22 30.24      
Feb 20 01:54 Calm 10 Cloudy BKN047 OVC080 34 29     82%     30.18 30.22      
Feb 20 00:54 SSW 3 10 Cloudy FEW050 OVC085 35 29     78% 32   30.18 30.21      
Feb 19 23:54 SSW 5 10 Cloudy OVC080 35 29     78% 31   30.2 30.22      
Feb 19 22:54 SSW 6 10 Cloudy BKN075 OVC095 36 28     73% 31   30.2 30.23      
Feb 19 21:54 S 6 10 Cloudy OVC090 36 27     70% 31   30.19 30.22      
Feb 19 20:54 SSW 5 10 Clear CLR 35 26     69% 31   30.19 30.23      
Feb 19 19:54 SSW 8 10 Mostly Clear FEW090 35 25     66% 29   30.19 30.23      
Feb 19 18:54 S 7 10 Clear CLR 35 25     66% 29   30.19 30.23      
Feb 19 17:54 S 7 10 Clear CLR 36 24     62% 30   30.2 30.23      
Feb 19 16:54 S 10 10 Clear CLR 38 24     57% 31   30.2 30.23      
Feb 19 15:54 SSW 13 10 Mostly Clear FEW049 40 23     50% 32   30.22 30.25      
Feb 19 14:54 SSW 11 10 Clear CLR 40 22     48% 33   30.2 30.24      
Feb 19 13:54 S 18 10 Clear CLR 39 22     50% 30   30.23 30.27      
Feb 19 12:54 SSW 21 10 Clear and Windy CLR 37 20     50% 26   30.26 30.3      
Feb 19 11:54 S 14 9 Clear CLR 35 19     52% 26   30.29 30.32      
Feb 19 10:54 S 15 10 Clear CLR 31 17     56% 20   30.33 30.37      
Feb 19 09:54 S 10 10 Clear CLR 26 15     63% 16   30.38 30.42      
Jun 11 17:54 W 15 10 Clear   87 57     36%   86 29.59 29.59      
Jun 11 11:54 SW 20 10 Clear and Windy CLR 85 60     43%   85 29.55 29.55      
Jun 08 22:54 SSW 7 10 Clear CLR 68 49     50%     29.75 29.75      
Jun 07 09:54 WSW 7 10 Clear CLR 65 43     45%     29.89 29.89      
Jun 06 03:54 NE 6 10 Clear CLR 43 39     86% 39   30.08 30.09